STARLINK-11430, 62916

Orbit data source: Space-Track

STARLINK-11430, 62916 is a payload satellite owned by SpaceX/Seattle (US) in LEO that was launched on Sat, 08 Feb 2025 UTC via an FALCON 9 launch vehicle from the Air Force Eastern Test Range (AFETR). Payload-class satellites include a variety of spacecraft equipped with specific instruments for various scientific and technological missions. These include communications satellites like Starlink; space stations such as the ISS; scientific satellites like the Hubble; Earth observation satellites from companies like Planet Labs, Umbra, and HawkEye 360; GPS; miniature CubeSats for education and research; and military/defense satellites.

Loading next visibility...
Identifier
62916, 2025-027K
Orbit
LEO
Last TLE update
11 hours ago
Origin
Manufacturer
SpaceX/Seattle
Mission
Operational Commercial Communications
Bus & Motor
STARLINK V2M, Unknown motor
Mass
730 kg wet, ~700 kg dry
Launch date (UTC)
2025-02-08 (5 months ago)
Launch vehicle
FALCON 9
Launch site
Air Force Eastern Test Range (AFETR)
Object type
Payload
Rocket body
Debris
Shape & HBR
Box + 2 Pan, 29 m
Radar Cross Section
36.964 m², Large (>1 m²)

Expand to show TLE details & history

TLE from 11 hours ago
0 STARLINK-11430
1 62916U 25027K   25181.68484128  .00215752  00000-0  16334-2 0  9999
2 62916  42.9995  67.0829 0001552 252.5564 107.5134 15.70959783 23558
Epoch: 2025-06-30T16:26Z
TLE epoch observation values (Epoch: 2025-06-30T16:26:10.286Z)
Latitude
-0.00003°
Longitude
-98.45109°
Altitude
356.238 km
Speed
7.697 km/s
True Right ascension
04h 28m 19s
True Declination
0° 00' 00"
Sunlit
Object was in daylight at epoch
Visualization orbit readout
Latitude
30.6027°
Longitude
-62.08398°
Altitude
357.164 km
Speed
7.699 km/s
Apparent Right ascension
05h 06m 09s
Apparent Declination
-4° 03' 41"
Sunlit
Object is in daylight
Visualization observer readout
Local Sidereal Time
14:56:28
Azimuth
312.265° NW
Elevation
-43.731°
Doppler factor
1
Orbital elements
Apogee altitude
359.18 km
Perigee altitude
357.089 km
Semi-major axis
6,736.271 km
Eccentricity
0.00016
Inclination
42.9995°
RAAN
67.0829°
Arg. of periapsis
252.5564°
True anomaly
Unknown
Mean anomaly
107.5134°
Eccentric anomaly
Unknown
Mean motion
3.92567 °/min
Orbital period
91.7 mins
BSTAR
0.0016334
Loading maneuver chart data...
Loading SW <> Apogee altitude chart data...
Loading historical data...
Loading historical data...
Loading historical data...
Loading historical data...
Loading historical data...
Loading historical data...
Loading historical data...

STARLINK-11430 Visibility forecast

Observer location: undefined°, undefined°

Span
Click to sort rows by Start time (UTC) header in descending order
Start Az.
Max El. time (UTC)
Max El. Az.
Max El.
End time (UTC)
End Az.
4 mins2025-07-01 20:09:11.943Z230.301° WSW2025-07-01 20:10:11.943Z197.212° SSW39.693°2025-07-01 20:13:11.943Z76.531° E
4 mins2025-07-01 21:45:11.943Z291.202° WNW2025-07-01 21:46:11.943Z321.793° NNW33.098°2025-07-01 21:49:11.943Z67.965° E
4 mins2025-07-01 23:21:11.943Z297.323° NW2025-07-01 23:23:11.943Z34.857° NE39.393°2025-07-01 23:25:11.943Z89.364° E
|